STARLINK-5742, 55583

Orbit data source: Space-Track

STARLINK-5742, 55583 is a payload satellite owned by SpaceX/Seattle (US) in LEO that was launched on Sun, 12 Feb 2023 UTC via an FALCON 9 launch vehicle from the Air Force Eastern Test Range (AFETR). Payload-class satellites include a variety of spacecraft equipped with specific instruments for various scientific and technological missions. These include communications satellites like Starlink; space stations such as the ISS; scientific satellites like the Hubble; Earth observation satellites from companies like Planet Labs, Umbra, and HawkEye 360; GPS; miniature CubeSats for education and research; and military/defense satellites.

Loading next visibility...
Identifier
55583, 2023-020Q
Orbit
LEO
Country
Flag of USUS
Related business
Manufacturer
SpaceX/Seattle
Mission
Operational Commercial Communications
Bus & Motor
STARLINK, Unknown motor
Mass
305 kg wet, ~290 kg dry
Launch date (UTC)
2023-02-12 (3 years ago)
Launch vehicle
FALCON 9
Launch site
Air Force Eastern Test Range (AFETR)
Object type
Payload
Rocket body
Debris
Shape & HBR
Box + 1 Pan, 10.1 m
Radar Cross Section
13.562 m², Large (>1 m²)

Expand to show TLE details & history
Last TLE update: 11 hours ago

TLE from 11 hours ago
0 STARLINK-5742
1 55583U 23020Q   25340.78403309  .00001036  00000-0  91754-4 0  9991
2 55583  43.0019 149.4811 0001195 273.5893  86.4812 15.02537297154949
Epoch: 2025-12-06T18:49Z
TLE epoch observation values (Epoch: 2025-12-06T18:49:00.458Z)
Latitude
-0.00008°
Longitude
151.4223°
Altitude
558.803 km
Speed
7.584 km/s
True Right ascension
09h 57m 55s
True Declination
0° 00' 00"
Sunlit
Object was in daylight at epoch
Visualization orbit readout
Latitude
Unknown
Longitude
Unknown
Altitude
Unknown
Speed
Unknown
Apparent Right ascension
Unknown
Apparent Declination
Unknown
Sunlit
N/A
Visualization observer readout
Local Sidereal Time
04:18:26
Azimuth
Unknown
Elevation
Unknown
Doppler factor
Unknown
Orbital elements
Apogee altitude
561.828 km
Perigee altitude
560.17 km
Semi-major axis
6,939.136 km
Eccentricity
0.00012
Inclination
43.0019°
RAAN
149.4811°
Arg. of periapsis
273.5893°
True anomaly
86.49487°
Mean anomaly
86.4812°
Eccentric anomaly
86.48803°
Mean motion
3.75478 °/min
Orbital period
95.88 mins
BSTAR
0.000091754
Loading maneuver chart data...
Computing Atmospheric mass density...
Loading historical data...
Loading historical data...
Loading historical data...
Loading historical data...
Loading historical data...
Loading historical data...
Loading historical data...

Documentation

Showing up to 5 results
|